Location: Chattahoochee River National Recreation Area
(34.0022°N, 84.2416°W)
Time: 19:44:34
(UTC-05:00)

Daily predictions for brighter satellites

Satellite Brightness Start Highest point End
(mag) Time Altitude Azimuth Time Altitude Azimuth Time Altitude Azimuth
Cosmos 841 Rocket 3.7 18:10:00 10° S 18:15:06 53° ESE 18:20:14 10° NNE
Cosmos 1766 Rocket 3.8 18:11:22 10° S 18:15:50 80° W 18:20:18 10° N
SJ-12 4.4 18:12:57 10° S 18:17:05 69° WSW 18:21:13 10° NNW
CORIOLIS 4.2 18:17:41 10° SSE 18:23:01 89° ENE 18:28:24 10° NNW
Cosmos 2228 Rocket 3.3 18:21:05 10° N 18:25:20 46° E 18:29:35 10° SSE
YAOGAN 1 2.8 18:22:07 10° S 18:26:26 79° W 18:30:46 10° NNW
Cosmos 332 Rocket 3.9 18:21:52 10° S 18:26:34 56° ESE 18:31:18 10° NNE
Cosmos 1937 Rocket 3.4 18:21:52 10° NNW 18:27:03 71° ENE 18:32:15 10° SSE
Cosmos 2219 Rocket 2.4 18:21:51 10° S 18:27:18 51° ESE 18:32:45 10° NNE
COSMO-SKYMED 1 2.7 18:23:34 10° NNE 18:27:52 57° ESE 18:32:06 10° S
SL-14 R/B 4.4 18:27:38 10° SE 18:30:46 24° E 18:33:56 10° NE
Cosmos 2278 Rocket 3.5 18:28:44 10° NNE 18:32:34 18° ENE 18:36:23 10° E
CENTAUR R/B 2.9 18:28:57 10° SW 18:34:49 63° WNW 18:41:26 10° NNE
Cosmos 1908 3.2 18:31:51 10° N 18:35:44 86° E 18:39:37 10° S
Cosmos 2084 3.7 18:32:20 10° S 18:36:06 42° ESE 18:39:29 12° NE
Milstar 3 3.3 18:30:27 10° W 18:37:05 54° S 18:44:10 10° ESE
Cosmos 1484 Rocket 2.7 18:33:48 10° SSE 18:37:38 70° ENE 18:41:33 10° N
CZ-4 R/B 3.4 18:36:03 10° SSW 18:39:32 31° W 18:43:01 10° NW
Cosmos 1844 4.2 18:37:21 10° N 18:42:43 38° ENE 18:48:04 10° SE
Cosmos 389 Rocket 3.2 18:40:29 10° NNW 18:44:00 57° W 18:47:28 10° S
Cosmos 2346 Rocket 4.5 18:39:28 10° S 18:45:44 82° E 18:52:01 10° N
COSMOS 2428 3.4 18:40:15 10° SW 18:45:51 57° WNW 18:51:28 10° NNE
Cosmos 1674 4.0 18:45:08 10° SSW 18:48:44 42° W 18:52:24 10° N
ALOS 3.6 18:49:04 10° ESE 18:52:09 18° ENE 18:55:16 10° NNE
Cosmos 2237 Rocket 2.3 18:49:29 10° S 18:54:54 52° ESE 19:00:18 10° NNE
Cosmos 44 3.7 18:52:00 10° S 18:57:09 51° ESE 19:01:00 17° NE
Cosmos 371 Rocket 3.2 18:53:09 10° SSW 18:57:57 88° ESE 19:02:47 10° NNE
Cosmos 2142 Rocket 4.5 18:51:40 10° N 18:58:02 67° E 19:04:20 10° SSE
SL-16 R/B 3.4 18:54:03 10° SSE 18:58:12 21° E 18:59:32 20° E
Hubble Space Telescope 2.1 18:54:34 10° WSW 18:58:20 34° S 19:01:45 12° SE
Abrixas 3.9 18:56:19 10° S 18:58:39 22° SE 18:59:05 21° ESE
Cosmos 1743 Rocket 4.4 18:54:41 10° SSW 18:59:02 53° W 19:03:26 10° N
FREGAT/IRIS 4.3 18:56:30 10° SE 18:57:43 19° ESE 18:57:43 19° ESE
Meteor 2-2 Rocket 4.2 18:54:40 10° N 19:00:19 88° W 19:05:58 10° S
Elektron 3 3.9 18:57:27 10° NNW 19:01:48 76° NE 19:04:42 10° SE
Abrixas rocket 2.1 19:01:00 10° NW 19:04:20 72° NE 19:06:07 25° ESE
Cosmos 1300 2.7 19:02:11 10° N 19:05:58 54° E 19:09:42 10° SSE
Meteor 1-11 4.2 19:02:22 10° S 19:07:54 61° E 19:13:31 10° NNE
Cosmos 1328 4.1 19:07:00 10° SSW 19:10:54 66° W 19:14:51 10° N
Cosmos 2058 2.8 19:07:52 10° S 19:11:56 63° E 19:15:32 13° NNE
NOAA 12 4.0 19:07:44 10° SSE 19:12:54 69° ENE 19:18:08 10° N
Cosmos 1515 Rocket 4.1 19:11:10 10° NNW 19:15:35 63° W 19:19:58 10° S
Cosmos 44 Rocket 3.8 19:11:00 10° SW 19:16:05 63° WNW 19:20:27 14° NNE
Cosmos 1634 Rocket 4.1 19:10:20 10° N 19:16:32 79° W 19:22:40 10° S
Cosmos 372 Rocket 4.3 19:13:57 10° N 19:18:41 37° ENE 19:21:04 24° ESE
Cosmos 1805 Rocket 3.9 19:14:38 10° SSE 19:18:50 43° E 19:20:12 33° NE
Cosmos 1726 2.0 19:16:01 10° N 19:19:47 90° NNE 19:23:33 10° S
SJ-6B 2.7 19:17:00 10° SSE 19:20:57 67° ENE 19:25:00 10° N
Cosmos 783 Rocket 4.4 19:17:27 10° S 19:22:44 73° ESE 19:26:39 18° NNE
FengYun 1-2 T 4.5 19:18:59 10° SE 19:24:15 44° ENE 19:29:30 10° N
Centaur AC-72 4.4 19:20:27 10° SW 19:25:33 29° SSE 19:31:54 15° ESE
Cosmos 2151 3.5 19:22:44 10° SSW 19:26:53 57° W 19:31:02 10° N
Cosmos 540 Rocket 3.7 19:26:08 10° SSW 19:31:16 68° WNW 19:35:55 13° N
USA 215 3.2 19:26:25 10° SE 19:32:59 89° SW 19:39:35 10° NW
Cosmos 1151 Rocket 3.6 19:29:33 10° NNW 19:33:44 57° W 19:37:56 10° S
Cosmos 1844 Rocket 3.5 19:30:14 10° NNW 19:35:43 53° WSW 19:41:10 10° S
Atlas Centaur 2 3.0 19:32:59 10° W 19:36:51 27° SSW 19:38:32 20° SSE
BREEZE-M DEB (TANK) 4.3 19:38:18 10° NW 19:38:41 10° NW 19:38:41 10° NW
Cosmos 1125 Rocket 3.4 19:34:01 10° NNW 19:39:15 89° WSW 19:44:26 10° SSE
OAO 3 Rocket 3.5 19:34:27 10° W 19:39:15 60° SSW 19:40:40 41° SE
OTV 4 2.4 19:38:49 10° WNW 19:40:16 24° NW 19:40:16 24° NW
Cosmos 1980 4.4 19:36:08 10° SW 19:41:40 54° WNW 19:46:34 13° N
Resurs 01 Rocket 3.7 19:45:28 15° N 19:45:28 15° N 19:46:17 10° N
OAO 1 Rocket 4.3 19:36:59 10° W 19:42:18 80° N 19:43:21 58° ENE
SEDSat Delta rocket 3.9 19:38:16 10° W 19:43:20 47° SSW 19:44:41 37° SSE
Cosmos 1703 3.2 19:40:27 10° S 19:44:02 75° S 19:44:02 75° S
H-2A ROCKET BODY 3.2 19:23:18 10° WSW 19:46:45 59° S 19:49:07 38° ESE
Spot 2 Rocket 3.3 19:41:53 10° SSE 19:46:53 65° ENE 19:51:53 10° N
Sich 1 4.0 19:42:54 10° S 19:45:32 34° SSE 19:45:32 34° SSE
Cosmos 304 Rocket 3.6 19:43:57 10° SSW 19:48:45 82° ESE 19:49:17 70° NE
Cosmos 2333 Rocket 3.5 19:44:32 10° SW 19:49:45 38° WNW 19:54:55 10° N
Cosmos 1538 Rocket 4.2 19:45:29 10° S 19:49:58 53° SE 19:49:58 53° SE
Cosmos 1340 Rocket 3.6 19:49:02 10° SSW 19:52:53 49° W 19:54:03 36° NNW
FENGYUN 3A 3.5 19:55:24 10° SSE 20:00:45 89° WSW 20:06:09 10° NNW
Aureole 2 Rocket 4.3 20:04:16 10° SW 20:06:47 30° W 20:06:47 30° W
USA 229 DEB 4.3 20:04:02 10° S 20:08:47 39° SSE 20:08:47 39° SSE
USA 229 4.3 20:04:08 10° S 20:08:50 38° SSE 20:08:50 38° SSE
Cosmos 2219 Rocket 4.5 20:07:31 10° WSW 20:11:31 19° WNW 20:15:31 10° NNW
Cosmos 2278 Rocket 2.8 20:11:26 10° NNW 20:16:59 56° WSW 20:22:05 12° S
Intelsat 5-1 Rocket 4.1 20:20:19 10° SW 20:22:50 26° SSW 20:22:50 26° SSW
ALOS 3.6 20:24:57 10° SSW 20:29:38 37° W 20:33:36 10° NNW
Hubble Space Telescope 3.7 20:36:20 10° WSW 20:37:08 13° SW 20:37:08 13° SW
Cosmos 2237 Rocket 4.5 20:35:19 10° WSW 20:39:14 19° WNW 20:42:11 13° NNW
SL-16 R/B 3.2 20:36:35 10° SW 20:41:30 42° WNW 20:41:30 42° WNW
Milstar 3 4.4 21:14:01 10° WSW 21:19:00 31° SSW 21:19:00 31° SSW
